Weather reports worldwide

Advertisment
Magilligan, United Kingdom (3907): temperature & dewpoint: 16.06.2018 19:00:00 - 22.06.2018 19:00:00 (BST)Magilligan, United Kingdom (3907): temperature -20cm & temperature -100cm: 16.06.2018 19:00:00 - 22.06.2018 19:00:00 (BST)Magilligan, United Kingdom (3907): wind speed & gusts: 16.06.2018 19:00:00 - 22.06.2018 19:00:00 (BST)Magilligan, United Kingdom (3907): wind direction: 16.06.2018 19:00:00 - 22.06.2018 19:00:00 (BST)Magilligan, United Kingdom (3907): reduced air pressure: 16.06.2018 19:00:00 - 22.06.2018 19:00:00 (BST)Magilligan, United Kingdom (3907): visibility: 16.06.2018 19:00:00 - 22.06.2018 19:00:00 (BST)Magilligan, United Kingdom (3907): sunshine duration: 16.06.2018 19:00:00 - 22.06.2018 19:00:00 (BST)Magilligan, United Kingdom (3907): precipitation: 16.06.2018 19:00:00 - 22.06.2018 19:00:00 (BST)
Date & Time tt [°C] td [°C] tt -20cm [°C] tt -100cm [°C] ff [km/h] ff [kn] fx [km/h] fx [kn] dd ppp [hPa] vv [km] sd [min] rr [mm]
22.06.2018 19:00:00 14,8 8,3 - - 13 7 - - NW 1032,8 45 36 0,0
22.06.2018 18:00:00 14,7 7,2 - - 18 10 - - NW 1033,1 35 54 0,0
22.06.2018 17:00:00 15,8 8,4 - - 18 10 - - NW 1033,5 27 60 0,0
22.06.2018 16:00:00 15,1 8,6 - - 18 10 - - NW 1033,8 30 36 0,0
22.06.2018 15:00:00 14,8 8,6 - - 18 10 - - NW 1034,0 35 6 0,0
22.06.2018 14:00:00 13,9 7,6 - - 22 12 - - NW 1034,2 45 24 0,0
22.06.2018 13:00:00 15,6 7,1 - - 18 10 - - NW 1034,4 45 60 0,0
22.06.2018 12:00:00 15,1 8,3 - - 15 8 - - NW 1034,7 40 42 0,0
22.06.2018 11:00:00 14,1 8,5 - - 15 8 - - NW 1034,6 35 18 0,0
22.06.2018 10:00:00 14,0 8,7 16,0 12,7 15 8 - - NNW 1034,5 35 30 0,0
22.06.2018 09:00:00 12,4 7,7 - - 16 9 - - WNW 1034,4 35 30 0,0
22.06.2018 08:00:00 11,8 8,0 - - 9 5 - - WNW 1034,4 35 18 0,0
22.06.2018 07:00:00 10,8 7,6 - - 8 4 - - WNW 1034,3 35 0 0,0
22.06.2018 06:00:00 9,1 7,4 - - 8 4 - - WNW 1034,2 45 0 0,0
22.06.2018 05:00:00 8,4 6,0 - - 11 6 - - NW 1034,2 35 0 0,0
22.06.2018 04:00:00 10,6 6,9 - - 11 6 - - NW 1034,5 45 0 0,0
22.06.2018 03:00:00 10,0 7,1 - - 0 0 - - N 1034,5 45 0 0,0
22.06.2018 02:00:00 9,3 6,4 - - 5 3 - - NNW 1034,7 30 0 0,0
22.06.2018 01:00:00 8,6 5,8 - - 9 5 - - NNW 1034,6 30 - 0,0
22.06.2018 00:00:00 10,2 7,1 - - 16 9 - - NNW 1034,9 35 0 0,0
21.06.2018 23:00:00 10,8 7,6 - - 13 7 - - NW 1034,9 26 0 0,0
21.06.2018 22:00:00 10,6 6,7 - - 15 8 - - NW 1034,7 40 30 0,0
21.06.2018 21:00:00 11,9 6,7 - - 16 9 - - NW 1034,4 45 30 0,0
21.06.2018 20:00:00 12,1 7,1 - - 21 11 - - NNW 1034,2 35 12 0,0
21.06.2018 19:00:00 12,5 7,3 - - 21 11 - - NNW 1034,0 27 30 0,0
21.06.2018 18:00:00 13,7 6,7 - - 26 14 - - NNW 1033,5 40 54 0,0
21.06.2018 17:00:00 13,5 6,7 - - 29 16 - - NNW 1033,0 35 48 0,0
21.06.2018 16:00:00 13,7 6,4 - - 31 17 - - NNW 1032,7 45 54 0,0
21.06.2018 15:00:00 14,9 8,5 - - 31 17 - - NNW 1032,6 29 60 0,0
21.06.2018 14:00:00 14,6 7,4 - - 29 16 - - NNW 1032,2 28 54 0,0
21.06.2018 13:00:00 13,6 7,2 - - 29 16 - - NNW 1031,7 28 24 0,0
21.06.2018 12:00:00 13,2 7,3 - - 29 16 - - NNW 1031,1 35 54 0,0
21.06.2018 11:00:00 13,3 6,4 - - 29 16 46 25 NNW 1030,6 30 48 0,0
21.06.2018 10:00:00 13,3 7,3 15,7 12,7 29 16 - - NNW 1030,2 35 60 0,0
21.06.2018 09:00:00 12,6 8,1 - - 28 15 - - NW 1029,4 24 54 0,0
21.06.2018 08:00:00 11,1 7,8 - - 16 9 - - NW 1028,7 30 12 0,2
21.06.2018 07:00:00 10,8 8,0 - - 16 9 - - NW 1027,9 35 6 0,0
21.06.2018 06:00:00 9,1 6,5 - - 21 11 - - NW 1027,1 35 0 0,0
21.06.2018 05:00:00 8,2 5,9 - - 15 8 - - NW 1026,5 40 0 0,0
21.06.2018 04:00:00 9,0 6,5 - - 21 11 - - NW 1025,9 40 0 0,0
21.06.2018 03:00:00 9,0 6,6 - - 15 8 - - WNW 1025,6 30 0 0,2
21.06.2018 02:00:00 9,5 6,8 - - 22 12 - - NW 1025,0 27 0 0,0
21.06.2018 01:00:00 9,5 6,7 - - 26 14 46 25 WNW 1024,3 26 - 0,0
21.06.2018 00:00:00 10,2 6,8 - - 31 17 46 25 WNW 1023,7 13 0 0,0
20.06.2018 23:00:00 10,0 5,7 - - 28 15 - - W 1023,3 24 0 0,0
20.06.2018 22:00:00 10,2 7,0 - - 26 14 - - W 1022,5 28 6 0,0
20.06.2018 21:00:00 10,5 7,4 - - 28 15 52 28 W 1022,0 40 18 0,2
20.06.2018 20:00:00 12,1 6,9 - - 39 21 55 30 W 1021,5 30 12 0,0
20.06.2018 19:00:00 12,6 7,3 - - 29 16 - - W 1021,3 35 0 0,0
20.06.2018 18:00:00 11,9 7,7 - - 31 17 55 30 W 1021,5 30 0 0,0
20.06.2018 17:00:00 13,1 6,8 - - 31 17 - - W 1021,1 45 0 0,0
20.06.2018 16:00:00 13,8 7,5 - - 29 16 - - W 1021,1 40 0 0,0
20.06.2018 15:00:00 12,9 7,2 - - 28 15 - - WNW 1021,1 30 0 0,0
20.06.2018 14:00:00 14,1 7,2 - - 28 15 - - WNW 1020,6 45 30 0,0
20.06.2018 13:00:00 13,8 7,2 - - 26 14 - - WNW 1020,5 40 36 0,0
20.06.2018 12:00:00 14,4 7,6 - - 28 15 - - NW 1019,6 45 54 0,0
20.06.2018 11:00:00 13,3 9,5 - - 21 11 - - NW 1019,1 30 6 0,2
20.06.2018 10:00:00 11,7 8,4 16,0 12,7 22 12 - - NW 1018,5 17 36 0,0
20.06.2018 09:00:00 12,6 8,5 - - 28 15 - - NNW 1017,3 30 24 0,0
20.06.2018 08:00:00 10,8 8,0 - - 22 12 - - NNW 1016,0 28 6 0,0
20.06.2018 07:00:00 10,4 8,2 - - 24 13 - - N 1015,0 45 0 0,0
20.06.2018 06:00:00 9,8 8,8 - - 29 16 - - N 1013,4 30 0 0,2
20.06.2018 05:00:00 10,2 9,4 - - 26 14 - - N 1011,8 12 0 3,0
20.06.2018 04:00:00 14,5 14,1 - - 26 14 - - W 1009,4 3,6 0 1,0
20.06.2018 03:00:00 15,1 14,5 - - 22 12 - - SW 1009,0 7 0 0,0
20.06.2018 02:00:00 15,3 15,0 - - 18 10 - - SW 1009,3 25 0 0,0
20.06.2018 01:00:00 14,1 14,0 - - 8 4 - - SW 1009,7 16 - 1,2
20.06.2018 00:00:00 12,6 12,4 - - 2 1 - - N 1009,9 9 0 1,0
19.06.2018 23:00:00 12,4 12,1 - - 8 4 - - NNE 1010,6 4,6 0 2,2
19.06.2018 22:00:00 12,4 12,1 - - 8 4 - - NNW 1011,3 18 0 1,8
19.06.2018 21:00:00 12,1 11,7 - - 5 3 - - NNW 1011,3 13 0 1,8
19.06.2018 20:00:00 11,7 10,9 - - 9 5 - - ESE 1012,1 4,4 0 0,6
19.06.2018 19:00:00 11,7 10,8 - - 15 8 - - ESE 1013,0 29 0 1,8
19.06.2018 18:00:00 11,4 10,0 - - 18 10 - - ESE 1014,8 7 0 0,2
19.06.2018 17:00:00 12,1 10,3 - - 4 2 - - E 1016,1 10 0 0,8
19.06.2018 16:00:00 12,6 8,3 - - 8 4 - - W 1016,7 12 0 0,4
19.06.2018 15:00:00 13,6 6,8 - - 11 6 - - SSW 1017,4 30 0 0,0
19.06.2018 14:00:00 13,2 8,0 - - 15 8 - - S 1018,0 22 0 0,0
19.06.2018 13:00:00 13,5 8,0 - - 15 8 - - SSW 1018,4 35 0 0,0
19.06.2018 12:00:00 12,2 8,3 - - 16 9 - - SSW 1019,1 30 0 0,0
19.06.2018 11:00:00 12,3 8,1 - - 18 10 - - SW 1019,2 29 0 0,0
19.06.2018 10:00:00 12,1 7,7 15,7 12,7 21 11 - - SW 1019,4 28 0 0,0
19.06.2018 09:00:00 11,7 7,8 - - 22 12 - - SW 1019,3 24 0 0,0
19.06.2018 08:00:00 11,3 8,0 - - 16 9 - - SW 1018,9 22 0 0,0
19.06.2018 07:00:00 10,7 7,4 - - 21 11 - - SW 1018,8 24 0 0,0
19.06.2018 06:00:00 9,3 7,0 - - 15 8 - - SSW 1018,7 20 0 0,0
19.06.2018 05:00:00 9,9 6,8 - - 22 12 - - WSW 1018,6 24 0 0,0
19.06.2018 04:00:00 9,6 6,6 - - 22 12 - - SW 1018,3 22 0 0,0
19.06.2018 03:00:00 9,9 6,4 - - 22 12 - - WSW 1018,0 23 0 0,0
19.06.2018 02:00:00 10,4 6,8 - - 28 15 - - WSW 1018,1 24 0 0,0
19.06.2018 01:00:00 10,9 6,0 - - 22 12 - - WSW 1017,6 28 - 0,0
19.06.2018 00:00:00 11,3 6,0 - - 26 14 - - WSW 1017,6 30 0 0,0
18.06.2018 23:00:00 11,5 5,8 - - 29 16 - - W 1017,3 25 0 0,0
18.06.2018 22:00:00 12,0 7,3 - - 28 15 46 25 W 1016,3 22 0 0,0
18.06.2018 21:00:00 12,5 8,0 - - 29 16 48 26 W 1015,3 22 0 0,0
18.06.2018 20:00:00 13,7 6,6 - - 31 17 54 29 W 1014,6 29 48 0,0
18.06.2018 19:00:00 14,2 8,3 - - 34 18 50 27 WSW 1013,9 21 18 0,0
18.06.2018 18:00:00 13,9 8,6 - - 39 21 50 27 W 1013,4 14 30 0,0
18.06.2018 17:00:00 15,7 7,8 - - 34 18 52 28 WSW 1013,1 30 36 0,0
18.06.2018 16:00:00 14,5 10,3 - - 31 17 - - WSW 1012,9 23 0 0,0
18.06.2018 15:00:00 15,3 9,8 - - 34 18 46 25 WSW 1012,9 29 0 0,0
18.06.2018 14:00:00 15,3 9,6 - - 37 20 50 27 SW 1012,6 30 0 0,0
18.06.2018 13:00:00 16,4 9,9 - - 34 18 - - WSW 1012,7 25 18 0,0
18.06.2018 12:00:00 16,2 9,5 - - 31 17 - - WSW 1012,5 26 30 0,0
18.06.2018 11:00:00 14,8 8,9 - - 26 14 - - WSW 1012,6 35 30 0,0
18.06.2018 10:00:00 14,9 8,6 15,7 12,7 37 20 - - WSW 1012,7 16 42 0,0
18.06.2018 09:00:00 13,5 9,1 - - 28 15 - - WSW 1012,4 25 6 0,0
18.06.2018 08:00:00 12,7 8,8 - - 35 19 50 27 WSW 1012,2 20 0 0,0
18.06.2018 07:00:00 12,3 9,2 - - 31 17 - - WSW 1011,7 18 0 0,0
18.06.2018 06:00:00 12,0 8,9 - - 29 16 - - WSW 1011,9 17 0 0,0
18.06.2018 05:00:00 12,1 9,0 - - 29 16 - - WSW 1011,8 18 0 0,0
18.06.2018 04:00:00 12,1 8,6 - - 29 16 50 27 WSW 1011,5 19 0 0,0
18.06.2018 03:00:00 12,2 8,5 - - 39 21 50 27 WSW 1011,3 20 0 0,0
18.06.2018 02:00:00 12,1 9,1 - - 37 20 48 26 WSW 1011,0 13 0 0,0
18.06.2018 01:00:00 12,0 9,9 - - 34 18 - - WSW 1011,1 17 - 0,0
18.06.2018 00:00:00 12,7 10,0 - - 34 18 48 26 WSW 1010,7 28 0 0,0
17.06.2018 23:00:00 12,8 10,4 - - 34 18 48 26 WSW 1010,3 35 0 0,0
17.06.2018 22:00:00 13,2 11,2 - - 37 20 50 27 WSW 1009,6 35 0 0,0
17.06.2018 21:00:00 13,7 11,8 - - 37 20 48 26 WSW 1008,8 35 0 0,0
17.06.2018 20:00:00 13,6 12,4 - - 34 18 - - WSW 1008,6 18 0 0,4
17.06.2018 19:00:00 14,1 13,0 - - 29 16 46 25 WSW 1008,3 7 0 0,0
17.06.2018 18:00:00 15,8 13,3 - - 31 17 48 26 WSW 1007,6 45 0 0,0
17.06.2018 17:00:00 15,9 12,7 - - 31 17 - - WSW 1007,2 40 0 0,0
17.06.2018 16:00:00 16,1 13,6 - - 26 14 - - SW 1006,6 50 0 0,0
17.06.2018 15:00:00 15,4 13,3 - - 24 13 - - S 1006,3 50 0 0,2
17.06.2018 14:00:00 13,9 12,6 - - 22 12 - - SSW 1006,6 30 0 0,2
17.06.2018 13:00:00 13,7 11,3 - - 24 13 - - S 1007,0 30 0 0,0
17.06.2018 12:00:00 14,6 10,9 - - 24 13 - - S 1006,9 50 0 0,0
17.06.2018 11:00:00 13,9 10,3 - - 21 11 - - S 1007,8 45 0 0,0
17.06.2018 10:00:00 13,0 9,6 16,0 12,9 21 11 - - S 1008,5 28 0 0,0
17.06.2018 09:00:00 12,9 10,3 - - 16 9 - - SSW 1008,6 28 0 0,0
17.06.2018 08:00:00 11,9 10,3 - - 13 7 - - SSW 1008,7 30 0 0,2
17.06.2018 07:00:00 11,8 10,2 - - 16 9 - - SSW 1008,8 25 0 0,0
17.06.2018 06:00:00 11,3 10,1 - - 13 7 - - SW 1009,0 30 0 0,0
17.06.2018 05:00:00 11,6 10,0 - - 22 12 - - SW 1009,0 26 0 0,0
17.06.2018 04:00:00 11,6 10,5 - - 15 8 - - SW 1008,9 24 0 0,0
17.06.2018 03:00:00 11,5 10,6 - - 28 15 - - WSW 1009,0 24 0 1,4
17.06.2018 02:00:00 11,8 10,6 - - 22 12 - - SW 1009,0 30 0 0,0
17.06.2018 01:00:00 12,0 10,5 - - 22 12 - - SW 1009,1 30 - 0,0
17.06.2018 00:00:00 11,6 9,8 - - 16 9 - - SSW 1009,2 45 0 0,0
16.06.2018 23:00:00 12,3 8,9 - - 22 12 - - WSW 1009,2 35 0 0,0
16.06.2018 22:00:00 12,9 8,1 - - 16 9 - - WSW 1008,9 40 0 0,0
16.06.2018 21:00:00 13,2 7,7 - - 9 5 - - W 1008,6 45 0 0,0
16.06.2018 20:00:00 13,9 8,2 - - 15 8 - - W 1008,5 35 36 0,0
16.06.2018 19:00:00 15,2 8,0 - - 21 11 - - W 1008,1 50 18 0,0

tt = temperature
td = dewpoint
tt -20cm = temperature -20cm
tt -100cm = temperature -100cm
ff = wind speed
fx = gusts
dd = wind direction
ppp = reduced air pressure
vv = visibility
sd = sunshine duration
rr = precipitation

Next stations